�N����,�����b,�ŏ������i�x�j,���ϕ����i�x�j,�ő啗���i�x�j,�ŏ�����(m/s),���ϕ���(m/s),�ő啗��(m/s),�C��(���j,���x�i���j,�C��(hPa),�~�J��(mm),�~�J����(�b�j,�~�J���x(mm/h),�ő�~�J���x(mm/h),�~�Ђ傤��(hit/���u),�~�Ђ傤����(�b�j,�~�Ђ傤���x(hit/���uh),�ő�~�Ђ傤���x(hit/���uh),�q�[�^���x(���j,�q�[�^�[�d���iV),�d���d���iV),�Q�Ɠd���iV)
2014/03/01,00:00:01,147,153,162,1.3,1.4,1.5,18.5,70.2,1011.4,0.00,0,0.0,////,0.0,0,0.0,////,17.9,0.0,12.3,3.521
2014/03/01,00:10:01,137,144,149,1.7,2.0,2.3,18.4,70.6,1011.4,0.00,0,0.0,////,0.0,0,0.0,////,17.2,0.0,12.3,3.524
2014/03/01,00:20:01,137,140,143,1.6,1.7,1.8,18.4,70.4,1011.5,0.00,0,0.0,////,0.0,0,0.0,////,17.2,0.0,12.3,3.524
2014/03/01,00:30:01,155,158,160,1.1,1.1,1.3,18.4,70.1,1011.5,0.00,0,0.0,////,0.0,0,0.0,////,17.2,0.0,12.3,3.523
2014/03/01,00:40:01,192,203,210,0.6,0.7,0.8,18.4,69.3,1011.4,0.00,0,0.0,////,0.0,0,0.0,////,17.4,0.0,12.3,3.521
2014/03/01,00:50:01,236,236,237,1.0,1.1,1.3,18.3,69.4,1011.4,0.00,0,0.0,////,0.0,0,0.0,////,17.2,0.0,12.3,3.521
2014/03/01,01:00:01,202,203,204,0.8,0.9,0.9,18.5,68.5,1011.5,0.00,0,0.0,////,0.0,0,0.0,////,17.0,0.0,12.3,3.523
2014/03/01,01:10:01,252,253,254,1.0,1.1,1.2,18.4,67.5,1011.5,0.00,0,0.0,////,0.0,0,0.0,////,17.5,0.0,12.3,3.521
2014/03/01,01:20:01,224,227,231,1.1,1.1,1.2,18.6,69.5,1011.5,0.00,0,0.0,////,0.0,0,0.0,////,17.4,0.0,12.3,3.523
2014/03/01,01:30:01,215,217,220,1.2,1.3,1.4,18.3,69.2,1011.4,0.00,0,0.0,////,0.0,0,0.0,////,17.4,0.0,12.3,3.521
2014/03/01,01:40:01,214,216,220,0.8,1.0,1.1,18.5,71.6,1011.3,0.00,0,0.0,////,0.0,0,0.0,////,17.0,0.0,12.3,3.521
2014/03/01,01:50:01,194,196,199,1.1,1.2,1.3,18.5,72.2,1011.3,0.00,0,0.0,////,0.0,0,0.0,////,17.0,0.0,12.3,3.521
2014/03/01,02:00:01,197,198,199,1.1,1.2,1.2,18.5,72.8,1011.3,0.00,0,0.0,////,0.0,0,0.0,////,17.2,0.0,12.3,3.523
2014/03/01,02:10:01,211,213,215,1.1,1.1,1.2,18.5,72.8,1011.2,0.00,0,0.0,////,0.0,0,0.0,////,17.2,0.0,12.3,3.521
2014/03/01,02:20:01,184,188,194,1.2,1.3,1.3,18.4,73.0,1011.0,0.00,0,0.0,////,0.0,0,0.0,////,17.0,0.0,12.3,3.521
2014/03/01,02:30:01,205,206,206,1.2,1.3,1.5,18.4,73.4,1011.0,0.00,0,0.0,////,0.0,0,0.0,////,17.2,0.0,12.3,3.523
2014/03/01,02:40:01,203,206,208,1.6,1.7,1.7,18.3,73.7,1010.9,0.00,0,0.0,////,0.0,0,0.0,////,17.0,0.0,12.3,3.523
2014/03/01,02:50:01,192,193,193,1.2,1.3,1.3,18.2,74.0,1010.9,0.00,0,0.0,////,0.0,0,0.0,////,17.0,0.0,12.3,3.523
2014/03/01,03:00:01,178,178,179,1.1,1.1,1.2,18.0,73.7,1010.7,0.00,0,0.0,////,0.0,0,0.0,////,16.9,0.0,12.3,3.521
2014/03/01,03:10:01,171,174,180,1.1,1.1,1.2,18.0,72.5,1010.6,0.00,0,0.0,////,0.0,0,0.0,////,16.5,0.0,12.3,3.523
2014/03/01,03:20:01,184,185,187,1.0,1.1,1.2,18.0,71.0,1010.5,0.00,0,0.0,////,0.0,0,0.0,////,16.7,0.0,12.3,3.523
2014/03/01,03:30:01,177,178,178,1.0,1.1,1.2,18.1,69.8,1010.4,0.00,0,0.0,////,0.0,0,0.0,////,16.5,0.0,12.3,3.523
2014/03/01,03:40:01,195,196,197,1.5,1.6,1.7,18.0,68.3,1010.4,0.00,0,0.0,////,0.0,0,0.0,////,16.7,0.0,12.3,3.523
2014/03/01,03:50:01,190,192,194,1.4,1.5,1.6,17.9,67.7,1010.3,0.00,0,0.0,////,0.0,0,0.0,////,16.5,0.0,12.3,3.523
2014/03/01,04:00:01,184,185,185,1.5,1.6,1.7,17.9,67.7,1010.2,0.00,0,0.0,////,0.0,0,0.0,////,16.3,0.0,12.3,3.521
2014/03/01,04:10:01,199,199,199,1.4,1.5,1.6,18.0,67.2,1010.2,0.00,0,0.0,////,0.0,0,0.0,////,16.5,0.0,12.3,3.523
2014/03/01,04:20:01,206,211,215,1.3,1.4,1.5,18.1,66.7,1010.1,0.00,0,0.0,////,0.0,0,0.0,////,16.7,0.0,12.3,3.521
2014/03/01,04:30:01,199,200,201,1.0,1.1,1.2,18.3,65.7,1010.1,0.00,0,0.0,////,0.0,0,0.0,////,16.7,0.0,12.3,3.523
2014/03/01,04:40:01,139,150,160,0.2,0.3,0.4,18.1,66.1,1010.1,0.00,0,0.0,////,0.0,0,0.0,////,16.7,0.0,12.3,3.521
2014/03/01,04:50:01,258,259,261,1.0,1.0,1.1,17.9,67.3,1010.0,0.00,0,0.0,////,0.0,0,0.0,////,16.0,0.0,12.3,3.523
2014/03/01,05:00:01,195,196,198,1.3,1.3,1.4,17.9,67.4,1009.9,0.00,0,0.0,////,0.0,0,0.0,////,16.3,0.0,12.3,3.523
2014/03/01,05:10:01,193,195,198,1.2,1.4,1.5,17.9,68.2,1010.0,0.00,0,0.0,////,0.0,0,0.0,////,16.2,0.0,12.3,3.523
2014/03/01,05:20:01,197,199,201,1.7,1.8,1.9,18.1,67.9,1010.0,0.00,0,0.0,////,0.0,0,0.0,////,16.3,0.0,12.3,3.521
2014/03/01,05:30:01,197,201,204,1.4,1.5,1.6,18.1,68.7,1010.1,0.00,0,0.0,////,0.0,0,0.0,////,16.5,0.0,12.3,3.524
2014/03/01,05:40:01,193,194,194,1.3,1.4,1.5,18.1,69.4,1010.1,0.00,0,0.0,////,0.0,0,0.0,////,16.5,0.0,12.3,3.523
2014/03/01,05:50:01,210,211,212,1.5,1.6,1.7,18.0,69.9,1010.1,0.00,0,0.0,////,0.0,0,0.0,////,16.3,0.0,12.3,3.521
2014/03/01,06:00:01,205,206,207,1.4,1.5,1.6,18.2,69.7,1010.1,0.00,0,0.0,////,0.0,0,0.0,////,16.5,0.0,12.3,3.523
2014/03/01,06:10:01,184,184,185,1.4,1.5,1.5,18.0,71.2,1010.1,0.00,0,0.0,////,0.0,0,0.0,////,16.5,0.0,12.3,3.525
2014/03/01,06:20:01,138,142,148,0.8,0.9,1.0,17.8,72.0,1010.2,0.00,0,0.0,////,0.0,0,0.0,////,16.2,0.0,12.3,3.523
2014/03/01,06:30:01,122,125,127,1.4,1.4,1.5,17.8,71.4,1010.2,0.00,0,0.0,////,0.0,0,0.0,////,16.2,0.0,12.3,3.523
2014/03/01,06:40:01,137,139,142,1.6,1.7,1.8,17.6,72.9,1010.3,0.00,0,0.0,////,0.0,0,0.0,////,16.0,0.0,12.3,3.523
2014/03/01,06:50:01,152,155,158,1.2,1.3,1.4,17.9,73.0,1010.4,0.00,0,0.0,////,0.0,0,0.0,////,16.3,0.0,12.3,3.521
2014/03/01,07:00:01,161,165,168,1.0,1.2,1.4,18.0,73.1,1010.5,0.00,0,0.0,////,0.0,0,0.0,////,16.3,0.0,12.3,3.523
2014/03/01,07:10:01,148,157,163,1.5,1.8,2.0,18.0,72.9,1010.5,0.00,0,0.0,////,0.0,0,0.0,////,16.5,0.0,12.3,3.523
2014/03/01,07:20:01,135,138,141,1.0,1.1,1.2,18.1,72.9,1010.5,0.00,0,0.0,////,0.0,0,0.0,////,16.9,0.0,12.3,3.523
2014/03/01,07:30:01,222,230,236,1.1,1.2,1.4,18.2,72.6,1010.7,0.00,0,0.0,////,0.0,0,0.0,////,17.2,0.0,12.3,3.521
2014/03/01,07:40:01,221,222,223,1.2,1.3,1.4,18.7,71.7,1010.8,0.00,0,0.0,////,0.0,0,0.0,////,18.2,0.0,12.3,3.521
2014/03/01,07:50:01,227,229,230,0.8,0.9,1.0,19.0,71.9,1010.8,0.00,0,0.0,////,0.0,0,0.0,////,19.1,0.0,12.3,3.521
2014/03/01,08:00:01,139,140,140,0.6,0.7,0.8,19.3,70.7,1010.9,0.00,0,0.0,////,0.0,0,0.0,////,20.3,0.0,12.3,3.523
2014/03/01,08:10:01,180,188,197,0.4,0.5,0.6,19.5,70.5,1010.9,0.00,0,0.0,////,0.0,0,0.0,////,20.3,0.0,12.3,3.523
2014/03/01,08:20:01,223,227,230,1.1,1.2,1.3,19.5,70.6,1011.0,0.00,0,0.0,////,0.0,0,0.0,////,20.3,0.0,12.3,3.523
2014/03/01,08:30:01,150,159,174,0.8,0.9,1.0,19.5,71.6,1010.9,0.00,0,0.0,////,0.0,0,0.0,////,20.1,0.0,12.3,3.521
2014/03/01,08:40:01,186,190,196,0.4,0.5,0.5,19.7,71.6,1010.8,0.00,0,0.0,////,0.0,0,0.0,////,20.6,0.0,12.3,3.521
2014/03/01,08:50:01,085,104,119,0.3,0.4,0.5,20.0,71.9,1010.8,0.00,0,0.0,////,0.0,0,0.0,////,21.0,0.0,12.3,3.523
2014/03/01,09:00:01,114,119,122,2.0,2.2,2.4,20.3,71.2,1010.5,0.00,0,0.0,////,0.0,0,0.0,////,21.7,0.0,12.2,3.521
2014/03/01,09:10:01,112,116,120,0.8,1.0,1.1,20.6,70.9,1010.6,0.00,0,0.0,////,0.0,0,0.0,////,21.8,0.0,12.3,3.523
2014/03/01,09:20:01,086,090,095,1.0,1.3,1.5,20.8,69.5,1010.8,0.00,0,0.0,////,0.0,0,0.0,////,23.1,0.0,12.3,3.523
2014/03/01,09:30:01,307,322,335,0.7,0.9,1.2,20.6,70.5,1010.8,0.00,0,0.0,////,0.0,0,0.0,////,23.1,0.0,12.3,3.523
2014/03/01,09:40:01,287,316,338,0.7,0.9,1.1,20.6,69.2,1010.9,0.00,0,0.0,////,0.0,0,0.0,////,23.2,0.0,12.3,3.521
2014/03/01,09:50:01,314,318,323,0.5,0.6,0.7,20.6,70.2,1010.8,0.00,0,0.0,////,0.0,0,0.0,////,22.0,0.0,12.3,3.523
2014/03/01,10:00:01,292,298,302,1.3,1.4,1.5,20.6,70.9,1010.8,0.00,0,0.0,////,0.0,0,0.0,////,21.7,0.0,12.3,3.520
2014/03/01,10:10:01,322,329,335,0.9,0.9,1.0,20.6,70.8,1010.7,0.00,0,0.0,////,0.0,0,0.0,////,21.8,0.0,12.3,3.521
2014/03/01,10:20:01,044,055,065,0.3,0.4,0.5,20.7,70.8,1010.6,0.00,0,0.0,////,0.0,0,0.0,////,21.7,0.0,12.3,3.519
2014/03/01,10:30:01,173,226,264,0.2,0.4,0.6,21.0,70.1,1010.4,0.00,0,0.0,////,0.0,0,0.0,////,24.3,0.0,12.3,3.520
2014/03/01,10:40:01,340,343,346,0.8,0.9,0.9,21.4,67.8,1010.4,0.00,0,0.0,////,0.0,0,0.0,////,26.3,0.0,12.3,3.521
2014/03/01,10:50:01,010,013,017,1.9,2.0,2.1,21.0,67.5,1010.2,0.00,0,0.0,////,0.0,0,0.0,////,24.6,0.0,12.3,3.521
2014/03/01,11:00:01,321,328,341,0.4,0.6,0.8,21.2,67.2,1010.1,0.00,0,0.0,////,0.0,0,0.0,////,24.3,0.0,12.3,3.523
2014/03/01,11:10:01,302,308,311,1.1,1.3,1.4,21.0,68.3,1010.1,0.00,0,0.0,////,0.0,0,0.0,////,23.1,0.0,12.3,3.520
2014/03/01,11:20:01,296,314,326,0.8,0.9,1.1,21.1,69.6,1010.0,0.00,0,0.0,////,0.0,0,0.0,////,22.4,0.0,12.3,3.523
2014/03/01,11:30:01,285,291,296,1.6,1.7,1.8,21.4,69.8,1009.9,0.00,0,0.0,////,0.0,0,0.0,////,23.4,0.0,12.3,3.521
2014/03/01,11:40:01,281,292,307,0.7,0.8,1.0,21.4,68.5,1009.8,0.00,0,0.0,////,0.0,0,0.0,////,23.1,0.0,12.3,3.523
2014/03/01,11:50:01,279,288,301,0.9,1.1,1.3,21.6,68.5,1009.6,0.00,0,0.0,////,0.0,0,0.0,////,24.6,0.0,12.3,3.523
2014/03/01,12:00:01,222,228,231,0.4,0.6,0.7,21.4,68.6,1009.4,0.00,0,0.0,////,0.0,0,0.0,////,23.7,0.0,12.3,3.521
2014/03/01,12:10:01,224,239,248,0.1,0.3,0.4,21.7,68.2,1009.2,0.00,0,0.0,////,0.0,0,0.0,////,25.3,0.0,12.3,3.521
2014/03/01,12:20:01,306,314,326,0.8,1.1,1.4,22.0,68.3,1009.0,0.00,0,0.0,////,0.0,0,0.0,////,27.2,0.0,12.3,3.520
2014/03/01,12:30:01,314,322,327,1.2,1.5,1.7,22.0,67.9,1009.0,0.00,0,0.0,////,0.0,0,0.0,////,27.7,0.0,12.3,3.521
2014/03/01,12:40:01,297,305,308,0.9,1.4,1.9,21.8,68.7,1008.8,0.00,0,0.0,////,0.0,0,0.0,////,26.3,0.0,12.3,3.521
2014/03/01,12:50:01,305,307,310,0.8,1.0,1.3,21.7,69.3,1008.6,0.00,0,0.0,////,0.0,0,0.0,////,24.4,0.0,12.3,3.523
2014/03/01,13:00:01,324,325,327,1.1,1.5,1.7,22.0,70.4,1008.3,0.00,0,0.0,////,0.0,0,0.0,////,24.8,0.0,12.3,3.521
2014/03/01,13:10:01,309,315,317,1.7,1.9,2.0,22.2,69.6,1008.2,0.00,0,0.0,////,0.0,0,0.0,////,26.5,0.0,12.3,3.523
2014/03/01,13:20:01,193,219,238,0.1,0.3,0.5,22.3,69.0,1008.2,0.00,0,0.0,////,0.0,0,0.0,////,26.0,0.0,12.3,3.523
2014/03/01,13:30:01,274,285,297,0.8,0.9,1.1,22.3,68.9,1007.9,0.00,0,0.0,////,0.0,0,0.0,////,25.0,0.0,12.3,3.523
2014/03/01,13:40:01,174,181,186,1.9,2.3,2.8,22.4,69.3,1007.6,0.00,0,0.0,////,0.0,0,0.0,////,23.9,0.0,12.3,3.523
2014/03/01,13:50:01,228,230,231,1.1,1.4,1.7,22.5,67.1,1007.5,0.00,0,0.0,////,0.0,0,0.0,////,24.4,0.0,12.3,3.521
2014/03/01,14:00:01,244,245,246,3.3,3.5,3.9,22.7,67.9,1007.3,0.00,0,0.0,////,0.0,0,0.0,////,24.6,0.0,12.3,3.521
2014/03/01,14:10:01,212,222,229,1.2,1.4,1.6,22.4,67.7,1007.0,0.00,0,0.0,////,0.0,0,0.0,////,23.6,0.0,12.3,3.523
2014/03/01,14:20:01,225,234,240,2.3,2.7,3.0,22.5,65.8,1006.8,0.00,0,0.0,////,0.0,0,0.0,////,23.9,0.0,12.3,3.518
2014/03/01,14:30:01,230,232,235,1.7,1.7,1.9,22.4,66.2,1006.7,0.00,0,0.0,////,0.0,0,0.0,////,23.2,0.0,12.3,3.523
2014/03/01,14:40:01,222,225,229,3.1,4.2,4.9,22.0,64.9,1006.6,0.00,0,0.0,////,0.0,0,0.0,////,22.4,0.0,12.3,3.521
2014/03/01,14:50:01,221,223,225,3.6,3.9,4.0,21.8,65.5,1006.5,0.00,0,0.0,////,0.0,0,0.0,////,21.7,0.0,12.3,3.523
2014/03/01,15:00:01,188,201,217,1.9,2.2,2.4,21.7,64.1,1006.5,0.00,0,0.0,////,0.0,0,0.0,////,21.3,0.0,12.3,3.520
2014/03/01,15:10:01,216,216,216,2.6,3.1,3.7,21.8,65.6,1006.5,0.00,0,0.0,////,0.0,0,0.0,////,21.5,0.0,12.3,3.523
2014/03/01,15:20:01,205,208,212,3.0,3.1,3.3,21.8,64.4,1006.2,0.00,0,0.0,////,0.0,0,0.0,////,22.0,0.0,12.3,3.521
2014/03/01,15:30:01,199,207,215,2.6,2.7,2.9,21.8,63.5,1006.2,0.00,0,0.0,////,0.0,0,0.0,////,21.8,0.0,12.3,3.523
2014/03/01,15:40:01,219,229,237,1.9,2.0,2.2,21.8,65.0,1006.1,0.00,0,0.0,////,0.0,0,0.0,////,21.7,0.0,12.3,3.523
2014/03/01,15:50:01,190,194,201,1.5,1.6,1.7,21.7,65.9,1006.0,0.00,0,0.0,////,0.0,0,0.0,////,21.8,0.0,12.3,3.523
2014/03/01,16:00:01,211,212,212,3.3,3.6,3.9,21.6,67.2,1006.0,0.00,0,0.0,////,0.0,0,0.0,////,21.3,0.0,12.3,3.523
2014/03/01,16:10:01,205,208,210,2.1,2.4,2.6,21.3,66.9,1006.1,0.00,0,0.0,////,0.0,0,0.0,////,21.0,0.0,12.3,3.521
2014/03/01,16:20:01,207,213,218,2.7,2.9,3.1,21.3,69.2,1006.1,0.00,0,0.0,////,0.0,0,0.0,////,20.8,0.0,12.3,3.521
2014/03/01,16:30:01,235,239,244,0.9,1.7,2.4,21.3,69.8,1006.2,0.00,0,0.0,////,0.0,0,0.0,////,21.0,0.0,12.3,3.521
2014/03/01,16:40:01,191,197,202,2.3,2.5,2.6,21.3,70.5,1006.0,0.00,0,0.0,////,0.0,0,0.0,////,21.0,0.0,12.3,3.523
2014/03/01,16:50:01,176,194,205,1.8,2.3,2.6,21.1,70.6,1005.9,0.00,0,0.0,////,0.0,0,0.0,////,20.6,0.0,12.3,3.523
2014/03/01,17:00:01,191,200,216,1.1,1.2,1.3,20.9,70.2,1005.8,0.00,0,0.0,////,0.0,0,0.0,////,20.5,0.0,12.3,3.523
2014/03/01,17:10:01,227,244,256,1.7,1.8,2.0,21.2,70.4,1005.8,0.00,0,0.0,////,0.0,0,0.0,////,21.2,0.0,12.3,3.521
2014/03/01,17:20:01,173,177,181,2.7,3.0,3.2,21.3,69.8,1005.8,0.00,0,0.0,////,0.0,0,0.0,////,21.5,0.0,12.3,3.521
2014/03/01,17:30:01,199,208,214,1.0,1.3,1.6,21.2,70.8,1005.8,0.00,0,0.0,////,0.0,0,0.0,////,20.8,0.0,12.3,3.523
2014/03/01,17:40:01,187,197,204,1.8,2.3,2.7,20.9,71.3,1005.7,0.00,0,0.0,////,0.0,0,0.0,////,20.1,0.0,12.3,3.521
2014/03/01,17:50:01,190,192,196,2.9,3.1,3.3,20.8,72.9,1005.6,0.00,0,0.0,////,0.0,0,0.0,////,20.0,0.0,12.3,3.523
2014/03/01,18:00:01,201,204,206,1.4,1.9,2.3,20.7,73.1,1005.7,0.00,0,0.0,////,0.0,0,0.0,////,19.8,0.0,12.3,3.523
2014/03/01,18:10:01,207,211,214,2.1,2.2,2.3,20.6,72.8,1005.8,0.00,0,0.0,////,0.0,0,0.0,////,19.6,0.0,12.3,3.521
2014/03/01,18:20:01,200,212,221,1.8,2.8,4.1,20.6,74.1,1006.0,0.00,0,0.0,////,0.0,0,0.0,////,19.6,0.0,12.3,3.523
2014/03/01,18:30:01,182,191,195,2.2,2.4,2.5,20.5,74.5,1006.0,0.00,0,0.0,////,0.0,0,0.0,////,19.3,0.0,12.3,3.521
2014/03/01,18:40:01,198,223,241,0.8,1.0,1.2,20.5,75.3,1006.0,0.00,0,0.0,////,0.0,0,0.0,////,19.4,0.0,12.3,3.523
2014/03/01,18:50:01,202,207,213,3.1,3.5,3.9,20.4,74.4,1005.9,0.00,0,0.0,////,0.0,0,0.0,////,19.3,0.0,12.3,3.521
2014/03/01,19:00:01,216,219,224,3.5,4.2,4.6,20.3,74.4,1005.8,0.00,0,0.0,////,0.0,0,0.0,////,19.3,0.0,12.3,3.521
2014/03/01,19:10:01,204,207,211,3.0,3.9,4.5,20.3,74.6,1005.8,0.00,0,0.0,////,0.0,0,0.0,////,19.1,0.0,12.3,3.521
2014/03/01,19:20:01,244,249,253,1.5,1.9,2.4,20.2,74.5,1005.7,0.00,0,0.0,////,0.0,0,0.0,////,19.1,0.0,12.3,3.523
2014/03/01,19:30:01,189,198,205,2.0,2.9,3.7,20.2,75.9,1005.9,0.00,0,0.0,////,0.0,0,0.0,////,18.9,0.0,12.3,3.521
2014/03/01,19:40:01,193,199,202,2.2,2.3,2.5,20.1,76.1,1005.9,0.00,0,0.0,////,0.0,0,0.0,////,18.6,0.0,12.3,3.523
2014/03/01,19:50:01,211,215,221,1.0,1.7,2.6,20.1,76.6,1006.0,0.00,0,0.0,////,0.0,0,0.0,////,18.9,0.0,12.3,3.521
2014/03/01,20:00:01,210,213,217,2.7,3.3,4.0,20.1,76.9,1005.9,0.00,0,0.0,////,0.0,0,0.0,////,19.1,0.0,12.3,3.521
2014/03/01,20:10:01,186,201,209,1.7,2.6,3.5,20.1,76.1,1005.9,0.00,0,0.0,////,0.0,0,0.0,////,18.9,0.0,12.3,3.523
2014/03/01,20:20:01,194,205,217,2.5,2.8,3.2,20.1,75.3,1005.9,0.00,0,0.0,////,0.0,0,0.0,////,19.3,0.0,12.3,3.521
2014/03/01,20:30:01,202,207,215,3.2,3.8,4.3,20.1,74.0,1005.9,0.00,0,0.0,////,0.0,0,0.0,////,19.1,0.0,12.3,3.521
2014/03/01,20:40:01,205,208,209,2.5,3.0,3.4,20.3,72.9,1005.9,0.00,0,0.0,////,0.0,0,0.0,////,19.4,0.0,12.3,3.521
2014/03/01,20:50:01,221,226,229,1.4,1.6,1.9,20.4,72.2,1006.0,0.00,0,0.0,////,0.0,0,0.0,////,19.4,0.0,12.3,3.524
2014/03/01,21:00:01,196,212,223,2.2,2.6,3.1,20.5,72.0,1005.9,0.00,0,0.0,////,0.0,0,0.0,////,19.4,0.0,12.2,3.521
2014/03/01,21:10:01,225,241,255,2.0,2.5,3.2,20.6,72.0,1006.0,0.00,0,0.0,////,0.0,0,0.0,////,19.6,0.0,12.3,3.521
2014/03/01,21:20:01,181,191,208,3.6,3.8,3.9,20.6,71.9,1006.0,0.00,0,0.0,////,0.0,0,0.0,////,19.6,0.0,12.3,3.523
2014/03/01,21:30:01,202,216,223,1.9,2.6,3.2,20.6,72.4,1006.1,0.00,0,0.0,////,0.0,0,0.0,////,19.6,0.0,12.3,3.523
2014/03/01,21:40:01,158,196,226,1.2,1.4,1.8,20.7,73.3,1006.1,0.00,0,0.0,////,0.0,0,0.0,////,19.6,0.0,12.2,3.523
2014/03/01,21:50:01,209,214,221,4.7,4.8,5.0,20.7,73.6,1006.2,0.00,0,0.0,////,0.0,0,0.0,////,19.6,0.0,12.3,3.521
2014/03/01,22:00:01,207,213,217,3.2,3.7,4.6,20.7,73.5,1006.2,0.00,0,0.0,////,0.0,0,0.0,////,19.6,0.0,12.3,3.521
2014/03/01,22:10:01,185,190,200,0.8,1.8,2.4,20.7,74.1,1006.1,0.00,0,0.0,////,0.0,0,0.0,////,19.4,0.0,12.3,3.521
2014/03/01,22:20:01,192,203,210,2.6,2.8,3.1,20.7,74.8,1006.3,0.00,0,0.0,////,0.0,0,0.0,////,19.8,0.0,12.3,3.523
2014/03/01,22:30:01,202,214,232,2.6,3.8,4.7,20.8,75.6,1006.1,0.00,0,0.0,////,0.0,0,0.0,////,19.8,0.0,12.3,3.523
2014/03/01,22:40:01,181,187,196,2.6,2.9,3.1,20.8,76.4,1006.2,0.00,0,0.0,////,0.0,0,0.0,////,19.8,0.0,12.3,3.523
2014/03/01,22:50:01,212,215,217,4.0,4.3,4.8,20.9,78.0,1006.2,0.00,0,0.0,////,0.0,0,0.0,////,19.8,0.0,12.3,3.521
2014/03/01,23:00:01,212,219,229,3.4,4.1,4.5,20.9,79.0,1006.2,0.00,0,0.0,////,0.0,0,0.0,////,19.6,0.0,12.3,3.523
2014/03/01,23:10:01,224,228,231,2.8,3.3,3.7,20.8,79.5,1006.0,0.00,0,0.0,////,0.0,0,0.0,////,19.8,0.0,12.3,3.524
2014/03/01,23:20:01,201,208,213,1.5,2.1,2.8,20.8,80.0,1006.0,0.00,0,0.0,////,0.0,0,0.0,////,19.8,0.0,12.3,3.523
2014/03/01,23:30:01,200,206,210,3.4,4.0,4.5,20.8,80.5,1006.0,0.00,0,0.0,////,0.0,0,0.0,////,19.8,0.0,12.3,3.523
2014/03/01,23:40:01,215,225,231,5.8,6.3,6.6,20.8,80.9,1005.9,0.00,10,0.0,////,0.0,0,0.0,////,19.8,0.0,12.3,3.521
2014/03/01,23:50:01,226,238,244,3.1,3.7,4.7,20.8,81.1,1005.8,0.00,0,0.0,////,0.0,0,0.0,////,19.8,0.0,12.3,3.521
2014/03/02,00:00:01,200,210,216,3.1,3.7,4.2,20.9,81.3,1005.7,0.00,10,0.0,////,0.0,0,0.0,////,19.8,0.0,12.3,3.521
2014/03/02,00:10:01,228,237,248,3.1,3.7,4.6,20.8,81.7,1005.7,0.02,40,0.5,////,0.0,0,0.0,////,19.8,0.0,12.3,3.521
2014/03/02,00:20:01,262,272,277,6.3,8.1,10.4,20.5,84.2,1005.9,0.45,450,10.4,////,0.0,0,0.0,////,19.1,0.0,12.3,3.523
2014/03/02,00:30:01,246,252,261,6.3,6.6,7.0,18.6,85.1,1006.2,1.82,590,17.2,////,0.0,0,0.0,////,17.7,0.0,12.3,3.523
2014/03/02,00:40:01,246,254,264,3.6,4.1,4.5,18.2,87.1,1006.2,0.91,590,4.7,////,0.0,0,0.0,////,16.7,0.0,12.3,3.524
2014/03/02,00:50:01,248,266,287,2.9,3.1,3.5,18.2,88.5,1006.2,0.03,180,1.2,////,0.0,0,0.0,////,16.7,0.0,12.3,3.523
2014/03/02,01:00:01,240,244,247,1.1,1.2,1.4,18.2,88.9,1006.0,0.28,570,1.8,////,0.0,0,0.0,////,16.7,0.0,12.3,3.523
2014/03/02,01:10:01,256,261,267,2.6,3.4,3.9,18.2,89.6,1006.0,0.39,530,2.0,////,0.0,0,0.0,////,16.9,0.0,12.3,3.523
2014/03/02,01:20:01,276,290,315,2.6,2.7,2.8,18.3,89.9,1005.8,0.14,450,0.0,////,0.0,0,0.0,////,16.9,0.0,12.3,3.523
2014/03/02,01:30:01,244,251,258,3.0,3.9,4.7,18.5,89.9,1005.7,0.00,0,0.0,////,0.0,0,0.0,////,17.2,0.0,12.3,3.523
2014/03/02,01:40:01,281,289,305,2.1,2.2,2.3,18.7,90.2,1005.7,0.00,0,0.0,////,0.0,0,0.0,////,17.4,0.0,12.3,3.524
2014/03/02,01:50:01,238,243,246,3.3,3.6,3.9,18.8,90.2,1005.6,0.01,30,0.0,////,0.0,0,0.0,////,17.5,0.0,12.3,3.523
2014/03/02,02:00:01,259,264,272,3.6,3.9,4.5,18.9,90.5,1005.6,0.00,0,0.0,////,0.0,0,0.0,////,17.5,0.0,12.3,3.523
2014/03/02,02:10:01,254,267,275,2.1,2.3,2.6,18.9,90.0,1005.4,0.00,0,0.0,////,0.0,0,0.0,////,17.9,0.0,12.3,3.523
2014/03/02,02:20:01,197,267,308,0.6,0.9,1.1,19.0,90.0,1005.4,0.00,0,0.0,////,0.0,0,0.0,////,17.5,0.0,12.3,3.524
2014/03/02,02:30:01,313,318,325,2.5,2.6,2.9,19.0,89.7,1005.2,0.00,10,0.0,////,0.0,0,0.0,////,17.9,0.0,12.3,3.523
2014/03/02,02:40:01,319,330,348,3.7,3.8,3.9,19.0,89.6,1005.2,0.03,180,0.6,////,0.0,0,0.0,////,17.7,0.0,12.3,3.521
2014/03/02,02:50:01,287,291,293,1.9,2.0,2.1,18.9,89.6,1005.2,0.04,90,0.0,////,0.0,0,0.0,////,17.5,0.0,12.3,3.524
2014/03/02,03:00:01,311,008,047,0.7,1.5,2.4,18.9,89.8,1005.2,0.00,0,0.0,////,0.0,0,0.0,////,17.7,0.0,12.3,3.523
2014/03/02,03:10:01,285,294,300,3.3,3.5,3.7,18.7,89.2,1005.1,0.00,140,0.0,////,0.0,0,0.0,////,17.5,0.0,12.3,3.523
2014/03/02,03:20:01,290,301,312,0.6,0.8,0.9,18.7,89.3,1005.0,0.00,10,0.0,////,0.0,0,0.0,////,17.4,0.0,12.3,3.521
2014/03/02,03:30:01,328,003,065,0.3,0.5,0.6,18.7,89.5,1005.1,0.00,20,0.0,////,0.0,0,0.0,////,17.4,0.0,12.3,3.525
2014/03/02,03:40:01,254,275,286,1.0,1.2,1.4,18.7,89.2,1004.9,0.00,0,0.0,////,0.0,0,0.0,////,17.4,0.0,12.3,3.523
2014/03/02,03:50:01,041,064,084,0.5,0.6,0.7,18.6,89.1,1004.8,0.00,0,0.0,////,0.0,0,0.0,////,17.2,0.0,12.3,3.523
2014/03/02,04:00:01,251,275,293,1.1,1.6,2.5,18.5,88.8,1004.7,0.00,0,0.0,////,0.0,0,0.0,////,17.2,0.0,12.3,3.523
2014/03/02,04:10:01,314,343,013,1.0,1.5,2.3,18.7,88.9,1004.9,0.00,0,0.0,////,0.0,0,0.0,////,17.4,0.0,12.3,3.521
2014/03/02,04:20:01,290,297,303,2.4,2.5,2.7,18.7,88.4,1004.9,0.00,0,0.0,////,0.0,0,0.0,////,17.9,0.0,12.3,3.521
2014/03/02,04:30:01,326,333,338,2.0,2.6,3.0,18.7,88.0,1005.0,0.00,0,0.0,////,0.0,0,0.0,////,17.5,0.0,12.3,3.523
2014/03/02,04:40:01,303,332,353,1.8,2.2,2.9,18.7,86.9,1004.9,0.00,0,0.0,////,0.0,0,0.0,////,17.9,0.0,12.3,3.521
2014/03/02,04:50:01,336,339,342,3.6,4.4,4.9,18.6,86.1,1004.9,0.00,0,0.0,////,0.0,0,0.0,////,17.7,0.0,12.3,3.523
2014/03/02,05:00:01,308,312,316,2.7,3.3,3.8,18.7,85.1,1004.9,0.00,0,0.0,////,0.0,0,0.0,////,17.7,0.0,12.3,3.520
2014/03/02,05:10:01,349,357,003,2.9,3.4,4.0,18.7,84.9,1004.8,0.00,0,0.0,////,0.0,0,0.0,////,17.7,0.0,12.3,3.523
2014/03/02,05:20:01,345,349,352,4.9,5.1,5.5,18.7,84.6,1005.0,0.00,0,0.0,////,0.0,0,0.0,////,17.7,0.0,12.3,3.523
2014/03/02,05:30:01,004,007,010,2.2,2.8,3.3,18.7,84.4,1005.2,0.00,0,0.0,////,0.0,0,0.0,////,17.9,0.0,12.3,3.523
2014/03/02,05:40:01,340,348,353,4.6,5.2,5.5,18.7,84.1,1005.2,0.00,0,0.0,////,0.0,0,0.0,////,17.7,0.0,12.3,3.521
2014/03/02,05:50:01,355,009,021,4.1,4.2,4.3,18.7,83.5,1005.3,0.00,0,0.0,////,0.0,0,0.0,////,17.7,0.0,12.3,3.523
2014/03/02,06:00:01,342,346,349,5.0,5.2,5.5,18.5,82.6,1005.4,0.00,0,0.0,////,0.0,0,0.0,////,17.7,0.0,12.3,3.523
2014/03/02,06:10:01,332,338,344,3.1,3.2,3.3,18.5,82.0,1005.4,0.00,0,0.0,////,0.0,0,0.0,////,17.5,0.0,12.3,3.523
2014/03/02,06:20:01,354,006,022,1.6,2.5,3.1,18.5,81.3,1005.6,0.00,0,0.0,////,0.0,0,0.0,////,17.5,0.0,12.3,3.521
2014/03/02,06:30:01,320,323,325,3.7,5.3,7.2,18.6,81.2,1005.8,0.00,0,0.0,////,0.0,0,0.0,////,17.7,0.0,12.3,3.523
2014/03/02,06:40:01,344,349,356,2.6,3.3,4.1,18.6,81.0,1005.9,0.00,0,0.0,////,0.0,0,0.0,////,17.7,0.0,12.3,3.521
2014/03/02,06:50:01,334,344,356,4.0,4.4,4.7,18.4,81.3,1005.9,0.00,0,0.0,////,0.0,0,0.0,////,17.4,0.0,12.3,3.523
2014/03/02,07:00:01,335,343,349,4.7,4.9,5.3,18.3,80.8,1006.0,0.00,0,0.0,////,0.0,0,0.0,////,17.2,0.0,12.3,3.523
2014/03/02,07:10:01,344,347,354,5.4,5.8,6.5,18.3,80.1,1006.0,0.00,0,0.0,////,0.0,0,0.0,////,17.4,0.0,12.3,3.521
2014/03/02,07:20:01,331,336,341,3.7,3.9,4.4,18.3,80.6,1006.1,0.00,0,0.0,////,0.0,0,0.0,////,17.5,0.0,12.3,3.521
2014/03/02,07:30:01,326,334,343,3.4,3.9,4.2,18.3,79.5,1006.4,0.00,0,0.0,////,0.0,0,0.0,////,17.4,0.0,12.3,3.523
2014/03/02,07:40:01,311,334,349,2.7,3.1,3.4,18.4,79.4,1006.7,0.00,0,0.0,////,0.0,0,0.0,////,17.5,0.0,12.3,3.521
2014/03/02,07:50:01,343,354,010,2.2,3.1,4.1,18.6,79.2,1006.8,0.00,0,0.0,////,0.0,0,0.0,////,17.5,0.0,12.3,3.521
2014/03/02,08:00:01,342,343,346,5.1,5.2,5.3,18.4,79.3,1007.0,0.00,0,0.0,////,0.0,0,0.0,////,17.5,0.0,12.3,3.523
2014/03/02,08:10:01,343,346,348,4.1,5.0,5.7,18.4,78.7,1007.0,0.00,0,0.0,////,0.0,0,0.0,////,17.5,0.0,12.3,3.523
2014/03/02,08:20:01,349,353,358,3.3,4.1,5.3,18.5,78.2,1007.2,0.00,0,0.0,////,0.0,0,0.0,////,17.7,0.0,12.3,3.521
2014/03/02,08:30:01,355,358,001,5.7,6.1,6.6,18.5,79.2,1007.2,0.00,0,0.0,////,0.0,0,0.0,////,17.7,0.0,12.3,3.523
2014/03/02,08:40:01,328,334,342,4.4,4.9,5.3,18.4,78.3,1007.3,0.00,0,0.0,////,0.0,0,0.0,////,17.7,0.0,12.2,3.523
2014/03/02,08:50:01,353,357,003,4.9,5.4,5.9,18.5,78.4,1007.4,0.00,0,0.0,////,0.0,0,0.0,////,17.9,0.0,12.3,3.523
2014/03/02,09:00:01,334,345,359,3.8,4.6,5.8,18.4,79.1,1007.5,0.00,0,0.0,////,0.0,0,0.0,////,17.5,0.0,12.2,3.523
2014/03/02,09:10:01,342,345,349,6.4,6.6,6.7,18.3,78.2,1007.5,0.00,0,0.0,////,0.0,0,0.0,////,17.4,0.0,12.3,3.523
2014/03/02,09:20:01,359,001,002,4.2,5.4,6.4,18.3,78.0,1007.7,0.00,0,0.0,////,0.0,0,0.0,////,17.4,0.0,12.3,3.525
2014/03/02,09:30:01,339,344,354,3.7,4.8,5.9,18.3,78.4,1007.8,0.00,0,0.0,////,0.0,0,0.0,////,17.7,0.0,12.3,3.523
2014/03/02,09:40:01,344,345,346,7.2,7.5,7.9,18.3,79.8,1008.0,0.00,0,0.0,////,0.0,0,0.0,////,17.5,0.0,12.3,3.520
2014/03/02,09:50:01,344,351,355,4.7,5.8,6.9,17.9,79.0,1007.9,0.00,0,0.0,////,0.0,0,0.0,////,16.9,0.0,12.3,3.523
2014/03/02,10:00:01,327,341,350,3.8,5.1,6.2,17.7,79.4,1008.0,0.00,20,0.0,////,0.0,0,0.0,////,16.7,0.0,12.3,3.525
2014/03/02,10:10:01,338,343,349,2.5,3.7,4.6,17.6,80.2,1007.9,0.06,400,0.0,////,0.0,0,0.0,////,16.3,0.0,12.2,3.524
2014/03/02,10:20:01,346,000,010,4.0,4.3,4.6,17.5,81.6,1007.8,0.01,180,0.0,////,0.0,0,0.0,////,16.2,0.0,12.3,3.523
2014/03/02,10:30:01,011,019,030,2.6,3.2,4.2,17.5,82.8,1007.6,0.00,10,0.0,////,0.0,0,0.0,////,15.8,0.0,12.3,3.523
2014/03/02,10:40:01,001,010,016,3.4,3.6,3.9,17.3,82.6,1007.5,0.06,410,0.0,////,0.0,0,0.0,////,16.2,0.0,12.3,3.523